カタログに戻る

STARLINK-32493

運用中通信VLEO
NORAD 62025·PAYLOAD·🇺🇸 United States

打ち上げ Nov 18, 2024 から Vandenberg Space Force Base

Loading…

次のパス (今後24時間)

TLE

最新Source: CelesTrak SupGP

元期: Sep 14, 2026, 15:08 UTC

1 62025C 24213T   26257.63104167 -.00053651  00000+0 -15855-2 0  2571
2 62025  53.1606   7.0104 0001288  76.3268 225.1671 15.34409426    14

AllMySatでSTARLINK-32493をリアルタイム追跡

Download on the App Store